Regional Weather Roundup
Issued by NWS New Orleans/Baton Rouge, LA

Home | Current Version | Previous Version | Text Only | Print | Product List | Glossary On
Versions: 1 2 3 4 5 6 7 8 9 10 11 12 13 14 15 16 17 18 19 20 21 22 23 24 25 26 27 28 29 30 31 32 33 34 35 36 37 38 39 40 41 42 43 44 45 46 47 48 49 50
322
ASUS44 KLIX 251510
RWRLIX
NEW ORLEANS REGIONAL WEATHER ROUNDUP
NATIONAL WEATHER SERVICE NEW ORLEANS LA
1000 AM CDT FRI JUL 25 2014

NOTE: "FAIR" INDICATES FEW OR NO CLOUDS BELOW 12,000 FEET WITH NO
      SIGNIFICANT WEATHER AND/OR OBSTRUCTIONS TO VISIBILITY.
      SKY/WX - SKY CONDITION AND SIGNIFICANT WEATHER.
      TMP - AIR TEMPERATURE.     DP    - DEWPOINT TEMPERATURE.
      RH  - RELATIVE HUMIDITY.   PRES  - PRESSURE.
      HI  - HEAT INDEX.          WCI   - WIND CHILL INDEX.

*  THESE STATIONS ARE NOT NWS OR FAA STATIONS AND ARE NOT UNDER
   NWS QUALITY CONTROL.

LAZ038-040-048-061>063-065>067-069-251600-
SOUTHEAST LOUISIANA

CITY           SKY/WX    TMP DP  RH WIND       PRES   REMARKS
N.O. AUDUBON     N/A     88  77  68 MISG        N/A  HX 100
N.O. INTL ARPT MOSUNNY   85  76  74 VRB3      30.05R
N.O. LAKEFRONT MOSUNNY   84  77  79 W10       30.06R
N.O. DOWNTOWN* PTSUNNY   86  73  66 W5        30.06R
SLIDELL        SUNNY     85  74  69 NW5       30.04R
BATON ROUGE    SUNNY     86  73  65 SW6       30.05S
BOOTHVILLE     MOSUNNY   84  75  74 W8        30.06R
BELLE CHASSE   PTSUNNY   84  75  74 SW6       30.04F
BOGALUSA*        N/A     86  74  68 W5        30.06R
GALLIANO*      NOT AVBL
NEW ROADS*       N/A     84  75  74 MISG      30.05S
GONZALES*        N/A     84  78  81 CALM      30.05S HX  95
HAMMOND*       SUNNY     86  72  62 W6        30.06S
HOUMA*         MOSUNNY   86  73  66 W5        30.06R
PORT FOURCHON* SUNNY     86  75  70 W7        30.07S HX  95

$$

MSZ070-080>082-251600-
SOUTHERN MISSISSIPPI

CITY           SKY/WX    TMP DP  RH WIND       PRES   REMARKS
MCCOMB         MOSUNNY   83  74  74 VRB3      30.06R
GULFPORT       SUNNY     89  75  63 NW7       30.03R HX  99
BILOXI         SUNNY     87  76  68 VRB3      30.04R HX  97
PASCAGOULA     SUNNY     87  76  69 VRB5      30.04R HX  97
STENNIS ARPT*  MOSUNNY  N/A N/A N/A VRB5      30.05R

$$

COASTAL OBSERVATIONS
LAKE AND NEARSHORE STATIONS

STATION/POSITION TIME  TEMP    WIND        PRES    WAVE
                       AIR SEA DIR/SP/G            HT/PER
                 (UTC) (F)     (DEG/KT/KT) (MB)    (FT/S)
PASCAGOULA       1500   84     240/  6/  8 1016.7
WAVELAND YACHT   1500   83     310/  9/ 12 1016.6
GRAND ISLE       1500   83 84  300/  9/ 10 1018.4
SOUTHWEST PASS   1500   84 84  320/  6/ 12 1018.3
NEW CANAL        1500   84 83  280/  4/  6 1018.1
SHELL BEACH      1500   83 80  260/  8/  9 1017.5

OFFSHORE STATIONS

STATION/POSITION TIME  TEMP    WIND        PRES    WAVE
                       AIR SEA DIR/SP/G            HT/PER
                 (UTC) (F)     (DEG/KT/KT) (MB)    (FT/S)
64 S DAUPHIN ISL 1449   82 85  260/ 10/ 14 1017.9

$$




USA.gov is the U.S. government's official web portal to all federal, state and local government web resources and services.